Weather History for Tupelo, MS

Change the Weather History Date:

Saturday, May 4, 2013

  Actual Average Record
Temperature  
Mean Temperature 50 °F 67 °F  
Max Temperature 62 °F 79 °F 93 °F (1959)
Min Temperature 37 °F 56 °F 30 °F (1976)
Degree Days  
Heating Degree Days 15 2  
Month to date heating degree days 24 8  
Since 1 July heating degree days 2926 2940  
Cooling Degree Days 0 4  
Month to date cooling degree days 9 15  
Year to date cooling degree days 72 91  
Moisture  
Dew Point 40 °F    
Average Humidity 66    
Maximum Humidity 92    
Minimum Humidity 39    
Precipitation  
Precipitation 0.12 in 0.19 in 1.70 in (1944)
Month to date precipitation 1.49 0.76  
Year to date precipitation 23.43 19.80  
Snow  
Snow 0.00 in 0.00 in - ()
Month to date snowfall 0.0 0.0  
Since 1 July snowfall T 2.1  
Snow Depth 0.00 in    
Sea Level Pressure  
Sea Level Pressure 29.94 in    
Wind  
Wind Speed 3 mph (West)    
Max Wind Speed 15 mph    
Max Gust Speed 21 mph    
Visibility 10 miles    
Events Rain    
T = Trace of Precipitation, MM = Missing Value Source: NWS Daily Summary

Daily Weather History Graph

Daily Weather History Graph

Search for Another Location

Airport:

Trip Planner

Search our weather history database for the weather conditions in past years. The results will help you decide how hot, cold, wet, or windy it might be!

Date:

Astronomy

May. 04, 2013 Rise Set
Actual Time 6:02 AM CDT 7:41 PM CDT
Civil Twilight 5:35 AM CDT 8:08 PM CDT
Nautical Twilight 5:02 AM CDT 8:41 PM CDT
Astronomical Twilight 4:28 AM CDT 9:15 PM CDT
Moon 2:46 AM CDT (5/4) 2:52 PM CDT (5/4)
Length of Visible Light 14h 33m
Length of Day
13h 39m
Waning Crescent, 27% of the Moon is Illuminated
May 4
Waning Crescent
May 9
New
May 17
First Quarter
May 24
Full
May 31
Last Quarter

Hourly Weather History & Observations

Time (CDT) Temp. Windchill Dew Point Humidity Pressure Visibility Wind Dir Wind Speed Gust Speed Precip Events Conditions
12:53 AM 42.1 °F - 39.0 °F 89% 29.99 in 10.0 mi Calm Calm - N/A   Mostly Cloudy
1:53 AM 41.0 °F - 37.9 °F 89% 29.96 in 10.0 mi Calm Calm - N/A   Clear
2:53 AM 39.9 °F - 37.9 °F 93% 29.95 in 10.0 mi Calm Calm - N/A   Partly Cloudy
3:53 AM 39.0 °F - 37.0 °F 93% 29.95 in 10.0 mi Calm Calm - N/A   Clear
4:53 AM 37.9 °F - 36.0 °F 93% 29.95 in 9.0 mi Calm Calm - N/A   Clear
5:53 AM 37.9 °F - 36.0 °F 93% 29.96 in 10.0 mi Calm Calm - N/A   Clear
6:53 AM 39.0 °F 35.7 °F 36.0 °F 89% 29.97 in 10.0 mi WNW 4.6 mph - N/A   Clear
7:53 AM 44.1 °F 41.5 °F 39.0 °F 82% 29.97 in 10.0 mi West 4.6 mph - N/A   Clear
8:53 AM 46.9 °F - 39.9 °F 77% 29.98 in 10.0 mi Variable 4.6 mph - N/A   Clear
9:53 AM 51.1 °F - 39.0 °F 63% 29.99 in 10.0 mi WNW 4.6 mph - N/A   Clear
10:53 AM 55.0 °F - 39.9 °F 57% 29.98 in 10.0 mi Calm Calm - N/A   Clear
11:53 AM 55.9 °F - 39.0 °F 53% 29.96 in 10.0 mi Calm Calm - N/A   Clear
12:53 PM 59.0 °F - 41.0 °F 51% 29.94 in 10.0 mi SSW 6.9 mph - N/A   Partly Cloudy
1:53 PM 60.1 °F - 39.9 °F 47% 29.91 in 10.0 mi Calm Calm - N/A   Mostly Cloudy
2:53 PM 60.1 °F - 41.0 °F 49% 29.91 in 10.0 mi South 3.5 mph - N/A   Mostly Cloudy
3:53 PM 61.0 °F - 35.1 °F 38% 29.90 in 10.0 mi WSW 5.8 mph - N/A   Scattered Clouds
4:53 PM 60.1 °F - 37.9 °F 44% 29.90 in 10.0 mi Calm Calm - N/A   Overcast
5:53 PM 57.9 °F - 45.0 °F 62% 29.89 in 10.0 mi Calm Calm - N/A   Overcast
6:53 PM 57.9 °F - 42.1 °F 56% 29.91 in 10.0 mi Calm Calm - N/A   Overcast
7:53 PM 51.1 °F - 43.0 °F 74% 29.94 in 10.0 mi North 9.2 mph 16.1 mph N/A   Overcast
8:53 PM 50.0 °F - 43.0 °F 77% 29.94 in 10.0 mi NE 6.9 mph - N/A   Mostly Cloudy
9:53 PM 50.0 °F - 44.1 °F 80% 29.95 in 10.0 mi Calm Calm - N/A   Overcast
10:53 PM 50.0 °F - 46.0 °F 86% 29.94 in 10.0 mi Calm Calm - 0.01 in Rain Light Rain
11:00 PM - - - N/A% - - North - - N/A   Unknown
11:53 PM 48.0 °F - 45.0 °F 89% 29.94 in 6.0 mi Variable 3.5 mph - 0.06 in Rain Light Rain